Wind_Speed
21 21 21 21 20 20 20 19 19 19 18 18 18 18 17 17 17 17 17 17 17 17 18 18 18 18 18 19 19 19 20 20 20 20 20 19 20 20 21 22 22 22 23 23 24 24 25 25 26 26 26 26 26 26 26 26 26 25 25 24 23 23 23 25 25 23 22 23 23 23 23 22 22 25 24 23 22 23 23 24 24 23 25 25 23 21 19 18
23 23 22 22 22 22 21 21 21 20 20 20 20 20 20 20 20 20 20 20 20 20 20 20 21 21 21 21 22 22 23 23 24 24 23 23 23 23 24 24 25 25 26 26 26 26 26 27 27 27 27 27 27 27 26 27 26 26 25 22 22 24 23 25 26 25 24 22 23 23 24 23 23 25 25 24 24 25 24 25 26 24 26 27 25 23 20 20
26 25 25 25 25 24 24 24 23 23 23 23 23 23 23 23 23 23 23 23 23 23 23 23 23 23 24 24 24 24 25 26 26 26 26 26 26 26 26 27 27 27 28 28 28 28 28 28 28 28 27 27 27 27 27 27 26 24 23 21 21 24 23 25 28 27 26 24 22 23 24 23 25 26 25 25 26 26 25 26 27 26 27 29 27 24 22 22
29 28 28 28 27 27 27 27 26 26 26 26 26 26 26 26 26 26 26 26 26 26 26 26 26 26 26 26 26 26 26 27 28 28 27 27 27 28 28 28 28 28 29 29 29 28 28 28 27 28 27 27 27 27 27 27 27 24 23 23 23 25 24 27 30 29 29 27 24 24 24 23 25 26 26 27 26 25 26 28 28 28 28 29 29 26 24 24
32 31 31 31 30 30 30 30 29 29 29 29 29 29 29 29 29 29 29 29 29 29 29 29 29 29 28 28 27 27 27 27 28 28 28 28 28 28 29 29 29 28 28 28 28 28 27 27 27 28 27 27 28 28 28 29 29 25 25 26 27 28 26 27 31 30 31 30 27 27 26 24 25 26 28 29 27 25 27 29 29 30 30 31 29 27 26 25
35 34 34 34 33 33 33 33 32 32 32 32 32 32 32 32 32 32 32 32 32 32 32 31 31 30 30 29 27 27 26 27 29 28 27 28 28 28 27 27 27 27 27 27 27 27 28 28 29 29 29 29 29 30 30 31 31 29 27 28 30 31 27 27 31 31 31 31 30 30 29 26 27 29 29 28 26 24 26 28 29 30 32 32 30 28 27 26
38 37 37 36 36 36 35 35 35 35 35 35 35 34 34 34 34 34 34 34 34 34 33 33 32 31 31 29 27 25 23 26 30 27 25 27 27 27 26 26 26 26 27 27 28 29 29 30 31 32 31 31 31 30 31 32 33 32 29 29 31 31 28 28 30 31 32 32 32 34 34 29 31 33 29 25 23 22 25 26 28 30 31 31 28 27 27 26
40 39 39 39 39 38 38 38 38 38 38 37 37 37 37 36 36 36 36 36 36 35 34 34 33 32 31 28 26 23 20 27 31 27 26 27 26 27 26 26 27 27 29 29 30 31 31 32 32 33 33 32 32 31 33 34 34 33 31 31 31 30 28 29 29 30 32 32 34 37 36 32 35 35 25 20 19 20 24 24 27 30 30 29 27 26 26 25
39 40 40 40 40 40 40 40 40 40 40 40 39 39 39 38 38 37 37 37 37 36 34 34 32 31 30 27 25 20 19 30 32 28 28 28 28 28 28 28 29 30 31 31 32 33 33 34 34 35 35 34 34 33 35 36 35 34 34 33 31 29 29 29 29 30 32 33 35 39 38 35 37 35 22 19 22 26 29 27 27 30 29 30 29 27 27 25
37 37 38 38 38 38 38 38 39 39 39 39 39 38 38 37 37 37 37 36 36 35 33 32 31 30 28 27 24 17 21 32 31 30 31 30 31 31 31 32 32 33 34 34 35 35 36 37 37 37 38 37 36 36 36 37 37 36 37 35 32 31 29 29 30 30 34 36 37 41 40 36 37 34 23 22 30 33 34 31 30 32 30 32 32 31 30 27
35 35 35 35 35 35 35 35 35 35 35 35 35 35 34 34 34 34 34 34 34 33 32 32 31 31 29 28 24 20 25 31 31 32 34 34 35 34 34 35 35 35 35 35 36 37 38 39 39 39 40 39 38 38 37 38 39 38 39 37 33 33 31 29 31 31 36 38 39 42 42 37 35 33 25 25 33 35 35 32 30 31 30 32 34 34 34 31
35 35 35 35 34 34 34 34 34 34 34 34 33 33 33 32 32 32 33 33 33 33 33 33 33 33 33 30 25 25 29 30 31 34 36 37 37 36 35 35 35 36 35 36 37 38 39 40 40 41 42 42 40 40 39 38 40 39 41 40 36 36 32 29 32 34 38 41 39 43 44 36 33 32 27 27 33 34 34 33 30 30 30 32 34 34 34 34
37 37 37 37 36 36 36 35 35 35 35 35 34 34 34 33 34 34 34 35 35 35 36 36 36 37 37 33 27 29 31 30 32 35 37 39 38 36 35 35 35 36 36 36 37 38 40 40 41 42 43 43 42 41 40 39 40 41 42 43 39 39 33 28 35 38 39 42 40 44 47 39 32 31 28 29 33 33 34 33 30 28 29 32 34 35 35 34
40 40 40 39 39 39 39 38 38 38 38 37 37 37 37 37 37 37 37 38 39 39 39 40 40 41 41 35 30 31 31 32 34 36 38 39 38 37 36 35 36 36 37 38 38 39 40 41 42 43 43 44 43 42 41 40 42 41 43 44 42 42 37 31 37 40 39 41 42 45 49 42 34 30 29 31 33 32 34 33 29 26 27 30 32 34 35 34
43 42 42 42 42 42 42 41 41 41 41 41 40 40 40 41 41 40 41 41 41 42 42 42 42 43 43 37 33 33 32 34 36 37 39 39 39 38 36 37 37 38 39 40 40 41 42 43 44 45 44 44 43 42 40 41 43 41 43 45 44 46 44 37 38 39 38 41 43 46 48 44 36 31 31 34 34 33 33 31 28 27 28 30 31 33 34 33
44 44 44 44 44 44 44 44 44 43 43 43 43 43 43 43 43 43 43 43 43 43 44 44 43 45 45 39 36 35 35 36 38 38 39 38 39 38 38 39 39 40 41 41 42 43 43 45 46 46 46 44 43 41 40 43 43 41 43 47 46 48 49 44 39 36 37 42 44 46 49 46 39 34 34 35 36 35 33 30 28 29 30 31 32 32 33 32
46 46 46 46 46 46 46 46 46 45 46 45 45 45 45 45 45 45 45 45 45 45 46 46 45 47 47 43 39 37 37 39 39 39 39 39 39 39 39 40 40 41 43 44 44 44 45 46 47 47 46 45 42 40 42 45 44 42 45 48 49 49 50 49 44 36 36 42 45 48 49 46 42 39 37 36 37 36 32 29 28 29 31 31 32 32 32 32
48 48 48 48 48 48 48 48 48 48 48 48 47 48 48 48 48 48 48 48 47 47 48 48 48 49 48 45 42 40 39 40 40 40 39 39 40 40 41 42 42 43 45 46 46 46 47 47 48 48 47 44 42 42 45 46 45 46 47 48 49 50 49 50 48 42 40 44 48 50 49 47 44 41 37 34 35 35 31 28 29 30 30 31 31 31 31 31
49 49 49 49 49 49 49 49 49 49 49 49 49 49 49 49 49 49 50 49 49 49 49 49 48 50 49 46 45 44 43 43 42 41 40 40 41 42 43 44 45 46 47 47 47 48 48 49 50 49 45 43 42 44 48 47 46 48 49 50 50 50 50 48 47 46 46 48 49 50 49 46 46 43 37 33 33 34 30 28 29 29 29 30 29 28 28 28
50 50 50 50 50 50 50 50 50 50 50 50 50 50 50 50 50 50 51 50 50 50 50 50 50 50 50 48 47 48 47 46 45 43 42 42 42 44 45 46 47 48 48 48 49 49 49 51 51 47 43 42 44 47 49 48 48 50 50 51 51 51 50 47 46 46 48 50 49 49 48 45 45 45 40 35 33 33 30 28 28 25 27 28 26 25 25 26
52 51 51 51 52 52 52 51 52 52 51 51 52 52 52 52 52 52 52 51 51 52 52 51 52 52 50 50 50 51 51 50 47 45 44 43 44 46 47 48 49 49 49 49 51 50 50 53 50 44 43 45 47 47 49 50 50 51 51 52 52 52 50 47 47 47 48 51 48 48 47 43 43 44 42 38 33 31 30 29 27 23 24 24 23 23 24 25
53 52 52 52 53 53 53 53 53 53 53 53 53 53 54 53 53 54 53 52 50 51 53 52 53 53 52 53 53 53 54 52 49 48 47 47 46 47 48 49 50 50 51 51 50 49 51 53 49 44 45 47 47 47 49 50 51 51 51 52 52 51 51 50 50 48 49 50 48 48 48 43 42 43 43 39 34 32 31 29 26 21 20 21 22 24 25 26
54 54 53 54 54 54 54 54 54 54 54 54 54 55 55 55 55 55 56 55 52 50 52 53 54 55 55 55 55 55 55 53 52 51 50 50 49 49 50 51 52 52 52 51 49 50 53 53 48 46 47 47 47 48 50 51 52 51 51 53 53 51 51 53 52 51 50 51 49 49 48 46 44 44 44 40 33 32 31 29 25 20 20 21 22 25 26 26
56 55 56 56 55 55 55 55 56 56 56 56 57 57 57 57 57 57 57 57 55 53 53 53 54 56 56 57 57 56 55 54 54 53 53 53 53 52 53 53 53 54 52 50 50 52 54 53 49 47 47 48 50 51 52 53 53 53 53 54 53 52 53 54 54 53 52 51 50 50 50 48 47 47 47 42 34 30 30 29 25 22 22 22 21 23 25 26
58 58 58 58 58 57 57 57 58 58 58 58 58 58 58 59 59 59 59 58 57 56 57 57 56 56 57 57 57 56 55 55 55 55 55 55 55 55 55 54 55 54 52 50 51 53 54 52 50 49 49 50 52 54 54 53 53 54 54 54 54 54 55 55 55 54 54 52 51 51 51 48 47 48 49 47 38 33 33 31 25 23 24 24 21 20 23 25
55 57 59 59 59 59 58 59 60 59 59 59 59 59 59 60 60 60 60 60 59 59 62 63 60 58 57 57 57 56 56 56 55 56 55 54 53 54 54 53 53 51 50 50 52 54 54 52 50 51 52 53 55 55 53 53 55 56 55 54 54 55 55 55 55 54 54 53 52 52 52 51 48 47 49 50 45 40 38 33 26 23 25 25 24 21 20 22
52 53 54 55 56 56 57 58 59 59 59 60 60 60 60 60 60 61 60 62 63 63 66 67 64 61 58 57 56 55 55 54 53 53 52 51 51 51 52 52 50 49 49 50 53 54 53 51 51 51 52 55 56 54 52 53 57 57 55 54 54 54 54 54 54 54 54 53 53 53 55 55 51 48 49 51 51 48 44 38 30 26 27 28 29 27 23 24
50 50 50 51 52 53 54 55 56 57 58 59 59 60 60 59 60 60 60 62 65 66 67 66 64 62 60 57 56 54 53 52 51 50 49 49 49 49 50 50 50 50 51 52 55 55 53 53 54 54 55 56 56 54 54 55 57 57 56 56 55 54 54 54 54 55 55 54 55 56 56 57 54 51 50 50 54 55 50 45 38 32 32 32 33 33 30 31
50 51 51 51 51 52 52 53 54 55 55 56 57 58 58 58 58 57 57 60 64 64 64 63 62 61 60 58 56 54 52 52 51 50 48 47 47 47 47 47 49 50 51 52 54 54 54 55 56 57 57 56 55 55 56 56 56 56 56 56 56 56 56 56 57 57 57 57 58 58 57 57 55 52 52 52 55 56 53 50 45 41 40 38 37 38 37 38
52 53 53 53 54 54 53 52 53 54 55 55 56 56 56 56 56 55 56 60 62 61 59 59 59 58 57 55 54 54 53 52 51 50 48 48 47 48 47 47 47 48 49 51 51 50 51 53 55 55 55 54 54 54 53 54 54 54 55 56 57 58 58 59 60 59 60 61 60 58 56 55 55 56 55 53 54 55 55 53 50 47 47 44 42 43 42 44
55 55 55 55 55 55 54 54 54 54 54 55 56 56 55 55 55 56 59 60 58 57 56 56 57 55 53 52 52 52 53 52 52 50 49 48 47 46 45 45 46 48 49 49 49 48 49 50 51 51 51 51 51 50 50 51 52 53 54 55 57 59 60 62 63 62 64 63 59 58 55 54 58 59 57 55 56 57 56 55 52 49 50 48 45 44 45 46
55 56 56 56 56 56 55 54 54 55 54 54 56 56 55 54 55 57 59 58 56 55 55 55 55 54 53 53 52 53 53 52 52 51 49 48 46 43 41 42 43 46 48 49 49 50 51 51 50 49 48 48 47 48 49 50 51 52 54 55 57 59 61 64 65 64 64 63 60 58 57 58 61 60 57 56 57 58 57 56 55 51 49 49 47 47 48 49
57 56 55 55 55 55 55 53 53 55 55 55 55 56 56 57 59 59 58 56 55 55 54 55 55 54 54 54 54 54 54 54 53 52 50 49 47 44 41 41 42 45 48 49 50 51 52 51 49 49 48 48 48 48 49 50 51 51 52 54 56 58 61 64 65 65 65 63 61 60 60 62 63 60 57 56 55 56 56 56 56 53 50 49 50 52 53 55
58 59 58 57 56 55 54 53 53 54 57 58 57 56 57 61 62 61 58 54 53 51 50 52 53 54 55 55 55 55 54 55 53 50 48 48 48 48 46 45 45 46 46 47 50 52 54 53 51 49 48 49 50 50 50 50 51 52 51 51 53 54 56 58 59 61 63 63 63 63 64 64 63 60 57 54 53 55 56 57 58 56 53 52 54 57 59 60
55 57 58 58 58 58 57 56 54 54 55 56 56 55 56 59 60 60 59 57 55 52 49 49 50 53 55 55 55 54 53 54 54 52 51 51 52 52 51 50 49 48 46 46 46 47 49 52 53 53 52 53 53 52 51 51 52 53 53 53 53 52 52 53 54 54 55 59 62 64 65 63 60 59 57 54 54 55 56 58 58 58 57 56 57 60 63 63
53 54 54 55 55 55 56 56 56 55 55 55 55 56 55 56 57 57 58 58 58 56 55 55 55 56 58 57 56 55 54 54 54 54 54 55 56 56 55 54 53 52 50 50 48 47 49 52 55 58 57 55 54 52 51 51 53 55 56 56 55 53 54 56 57 55 55 59 60 60 61 60 57 58 58 56 56 57 57 59 60 60 60 60 60 63 66 67
54 52 50 49 47 47 49 50 51 52 53 53 56 58 59 59 58 55 55 55 57 57 58 59 59 59 59 59 58 58 58 57 56 57 58 58 59 59 58 57 57 57 56 57 58 58 60 61 60 61 61 59 58 57 57 57 57 57 57 56 55 56 58 59 60 60 60 62 62 59 59 58 55 56 58 56 56 59 60 61 62 62 62 63 65 67 70 71
53 51 49 47 46 47 48 48 48 50 52 53 56 58 59 59 57 54 53 55 56 58 58 60 61 60 59 59 59 60 61 62 62 62 62 62 63 62 61 61 60 60 59 60 62 64 67 68 66 65 66 66 65 65 65 65 63 62 60 59 60 61 62 62 63 63 62 63 65 63 62 62 60 58 59 59 60 64 66 65 66 65 65 67 70 73 75 75
58 57 55 54 54 56 56 56 56 57 58 59 58 58 58 57 57 57 58 59 61 62 62 62 62 63 63 62 61 62 63 65 65 65 65 67 67 66 66 66 65 64 62 62 63 65 66 69 69 68 68 69 68 68 70 68 67 66 66 66 66 66 67 67 66 65 61 59 59 58 57 60 63 63 64 66 67 66 65 66 69 70 71 74 76 78 79 79
62 63 64 64 65 67 67 66 67 67 67 65 63 61 61 61 61 61 63 64 65 66 67 67 66 67 67 66 67 67 67 67 67 67 68 69 70 69 69 68 67 66 66 65 65 65 65 67 69 68 67 70 70 69 69 68 68 69 70 70 69 68 66 64 61 58 55 52 51 52 52 54 58 61 64 66 67 65 65 68 73 74 75 76 77 77 76 75
63 64 65 67 70 71 71 71 72 72 72 72 70 69 68 67 67 67 68 69 70 70 70 70 70 70 69 69 69 68 67 68 69 69 69 69 69 69 68 68 68 68 69 69 69 69 67 67 67 66 66 68 68 66 66 67 67 68 68 67 66 62 55 53 55 53 51 53 54 57 60 56 52 54 59 63 66 68 69 71 73 74 75 76 76 76 74 71
63 63 63 64 67 69 70 71 71 71 71 70 69 69 69 71 71 71 72 72 72 71 70 70 70 70 69 69 68 67 66 68 68 68 69 68 66 66 66 67 68 69 69 70 70 69 66 65 65 66 66 66 64 63 63 64 64 64 64 63 61 58 54 55 59 58 58 61 62 64 70 66 55 52 58 64 67 70 72 72 71 71 71 72 72 73 74 73
65 64 64 64 65 66 68 69 69 70 69 66 64 64 66 67 68 68 69 70 70 69 68 68 67 67 67 67 67 66 66 68 68 67 67 67 66 66 66 65 66 66 66 65 65 64 62 62 64 65 66 66 65 65 66 66 65 65 64 62 61 61 61 61 64 65 67 70 69 71 77 75 65 60 64 68 69 71 74 75 73 71 70 71 72 73 74 76
68 67 67 66 66 66 67 67 66 66 65 64 63 62 62 62 62 61 62 64 64 64 65 64 64 64 64 64 64 65 65 67 68 66 65 65 64 64 63 62 61 59 56 55 54 53 53 55 57 60 62 63 63 64 66 66 65 64 64 63 63 64 65 66 67 68 71 73 73 74 78 77 72 69 71 73 75 77 78 80 80 80 80 80 80 80 80 81
68 68 67 66 66 66 66 65 64 63 62 61 61 60 59 59 58 56 57 59 60 60 61 61 61 61 62 62 63 64 64 65 67 66 65 65 64 63 62 62 61 59 57 56 55 54 55 57 58 60 64 66 65 63 63 64 65 66 66 66 66 66 68 69 70 71 74 76 75 74 74 73 71 71 72 74 76 78 79 80 82 84 86 86 86 86 86 86
65 65 64 64 64 64 63 63 62 62 61 60 60 59 58 58 57 56 57 58 59 59 60 60 60 60 60 61 62 63 63 63 65 67 66 65 65 65 65 64 63 63 63 64 64 63 63 62 59 57 57 57 57 55 56 60 63 64 64 65 65 66 67 68 70 73 76 76 75 72 72 73 72 72 73 73 74 75 77 78 79 81 82 84 84 85 85 84
63 62 62 61 62 62 61 61 61 61 60 61 62 61 60 60 60 59 59 59 59 59 59 60 60 60 60 61 61 62 62 62 64 65 65 64 65 65 65 65 64 64 65 66 68 68 69 70 67 65 63 62 62 62 64 68 70 71 71 71 71 71 72 72 75 77 77 78 79 78 77 78 78 75 74 74 73 73 74 74 76 77 78 79 79 80 81 82
63 63 62 62 62 61 61 61 61 61 61 62 63 63 61 61 61 60 60 61 61 60 60 61 61 61 61 61 62 63 63 63 63 64 64 64 64 64 65 64 64 65 65 67 68 69 71 73 72 72 74 74 74 74 74 75 76 76 76 76 76 75 76 77 78 78 77 79 81 80 79 80 79 76 75 75 75 75 74 75 76 78 79 81 82 83 84 84
64 64 63 63 63 63 62 63 62 62 62 62 63 63 62 62 61 60 61 62 63 62 62 63 63 62 62 61 62 63 63 63 64 63 63 64 64 64 65 65 65 65 65 66 68 70 72 73 73 75 77 77 76 76 76 77 78 78 78 77 77 77 78 78 78 77 77 79 79 77 77 78 78 77 77 77 78 77 77 77 78 79 81 82 83 84 84 84
65 65 65 65 65 64 64 64 64 64 63 63 64 64 62 63 63 63 63 63 64 63 62 63 63 63 62 61 62 63 63 63 64 63 63 64 65 65 66 66 66 66 66 66 67 70 72 73 74 75 77 78 77 76 76 77 78 80 80 79 78 79 79 77 77 77 75 75 74 74 75 75 74 73 73 73 73 73 74 75 75 76 77 77 78 79 80 82
66 66 66 66 66 65 65 65 64 64 64 64 64 64 63 64 65 65 65 65 65 64 63 64 64 64 63 62 62 62 62 62 63 63 64 64 65 66 67 68 68 67 67 67 68 70 71 73 74 74 78 79 76 75 77 77 78 81 82 80 78 78 77 76 75 73 71 69 69 69 71 71 70 70 69 70 70 70 71 71 71 71 72 73 75 77 80 85
66 66 66 66 66 66 65 65 65 65 65 65 65 65 65 65 65 65 65 66 66 65 64 64 64 64 64 63 63 62 62 63 63 63 63 63 64 65 66 67 68 68 68 68 70 70 71 73 74 75 78 79 76 75 77 77 79 82 79 75 73 71 69 69 68 66 66 67 68 69 71 72 73 74 75 76 76 76 76 76 75 75 76 78 80 83 87 92
Wind_Direction
255 256 257 257 258 259 260 260 261 262 263 263 264 266 268 271 273 276 278 280 281 283 285 288 289 291 292 293 294 295 295 295 294 294 293 293 293 293 293 293 294 295 296 297 298 299 299 300 301 302 302 302 303 303 303 303 303 306 308 311 306 298 298 299 299 297 297 298 299 297 296 297 292 290 292 291 288 283 281 279 277 277 276 276 277 279 280 278
256 257 258 259 260 260 261 262 263 264 265 266 267 269 271 272 274 276 278 279 281 282 284 286 287 289 290 291 293 293 294 294 294 294 293 293 292 292 292 293 294 294 295 296 296 297 298 299 300 301 301 301 303 303 303 303 304 307 309 312 304 297 300 299 296 297 300 300 300 297 296 296 289 289 293 291 286 283 281 278 278 277 275 276 278 279 279 276
257 258 259 261 261 262 263 263 264 265 266 268 269 271 272 274 275 276 278 279 280 281 283 284 285 286 287 289 290 291 292 292 291 291 291 291 291 291 291 292 293 294 294 295 295 296 297 298 299 300 300 302 303 303 304 303 304 308 311 310 300 296 301 298 295 298 300 300 299 296 295 294 290 292 293 290 286 284 281 278 277 277 275 277 280 281 278 274
259 259 260 261 262 263 264 264 265 266 267 269 270 271 273 274 275 276 278 279 280 281 282 283 284 285 286 287 287 288 289 289 289 288 289 289 289 290 290 291 291 292 293 294 294 295 296 297 298 299 300 302 303 303 303 302 303 308 308 305 299 296 300 298 295 298 299 299 299 294 292 293 292 294 292 290 292 288 281 279 279 277 276 276 278 281 279 276
260 261 261 262 263 264 265 266 266 267 268 269 270 271 273 274 275 276 278 278 279 281 281 282 283 284 285 285 286 286 287 287 285 285 287 287 287 288 289 290 290 291 291 292 293 294 295 297 298 298 299 301 302 302 301 300 302 305 305 303 299 296 300 298 295 297 299 299 298 294 292 292 291 290 289 291 298 295 284 281 280 279 277 275 276 278 278 276
263 263 264 264 265 265 266 267 267 268 269 270 271 272 273 274 275 276 278 278 280 280 281 282 283 283 283 284 284 284 285 285 282 282 284 285 286 287 287 288 288 289 290 291 292 293 295 296 296 296 297 299 299 298 298 298 299 302 303 301 297 297 301 297 294 297 298 297 297 294 292 292 290 286 287 295 302 298 288 283 279 276 275 275 277 277 276 277
265 265 266 267 267 268 269 269 270 270 271 271 272 273 274 275 276 277 278 279 280 280 281 281 282 282 282 282 282 283 286 284 280 280 282 284 286 286 286 286 287 288 289 290 292 293 294 294 294 294 295 296 295 294 294 294 297 301 302 298 296 299 300 296 295 297 296 296 295 292 291 292 290 288 296 306 305 295 286 281 277 274 274 277 280 279 276 278
265 266 266 267 268 269 270 271 271 272 273 273 274 274 275 276 277 277 278 278 279 279 280 280 280 280 280 280 279 283 285 278 277 281 283 283 284 284 284 285 286 287 288 290 291 292 293 292 293 293 294 293 293 293 291 293 296 299 299 297 298 299 299 298 299 299 296 294 292 290 290 289 289 294 311 321 303 287 280 278 280 280 280 283 284 283 281 281
265 265 266 267 268 268 269 270 271 272 272 273 274 274 275 275 276 276 277 277 277 277 277 277 277 277 277 277 277 282 278 273 277 282 283 282 281 281 283 284 286 287 289 290 291 291 291 291 292 292 292 292 292 291 291 292 295 296 296 296 297 296 297 299 300 300 296 294 292 290 288 288 290 298 320 323 296 283 279 281 284 285 287 288 288 287 285 285
265 266 266 266 267 267 268 269 269 270 271 271 272 272 273 274 274 275 275 275 275 276 276 275 275 275 275 275 277 279 272 274 280 283 282 282 281 281 283 285 287 288 289 290 290 290 290 290 290 290 290 290 290 290 290 292 293 294 295 295 295 294 295 298 298 297 294 292 291 289 289 291 294 300 316 312 291 282 281 282 283 284 287 289 290 289 288 287
266 266 266 266 267 267 267 268 269 269 269 270 271 271 272 272 273 273 274 274 275 275 275 275 274 274 274 274 278 276 272 277 283 283 283 282 281 282 284 287 288 288 289 289 289 289 290 289 289 289 289 289 289 289 289 290 292 293 293 293 294 293 294 296 296 293 289 289 290 290 291 293 296 300 309 302 288 283 283 282 282 283 285 286 286 287 287 289
266 266 267 267 267 267 267 268 268 269 269 270 271 271 272 272 272 273 273 274 275 275 275 275 275 276 275 276 279 276 275 280 282 282 283 281 282 284 286 287 288 288 288 289 289 289 289 289 289 289 288 289 289 288 288 289 290 291 291 291 291 291 293 295 291 287 286 289 292 292 291 292 296 298 302 295 287 286 286 285 284 283 284 283 283 283 285 288
265 266 266 267 267 267 268 268 268 269 269 270 271 271 271 271 272 272 273 274 275 275 276 276 277 277 277 278 280 278 278 280 279 280 280 281 283 285 286 287 287 287 288 288 288 288 288 289 289 288 288 288 288 288 289 290 290 290 290 290 291 290 290 289 284 283 286 292 295 293 291 293 295 296 298 292 288 290 290 290 290 287 285 284 283 283 284 286
265 265 266 266 267 267 268 268 268 269 269 270 270 271 271 271 272 272 273 274 275 276 276 277 277 278 278 279 280 278 279 278 277 277 278 281 283 284 284 285 285 286 286 286 287 287 287 288 288 288 288 287 287 287 289 290 289 288 289 290 291 289 285 279 278 283 290 294 294 291 290 292 293 294 294 288 288 290 290 292 295 294 290 287 286 286 285 284
265 265 266 266 267 268 268 268 269 269 270 270 271 271 271 272 272 272 273 273 274 275 276 276 277 278 278 279 279 278 277 276 275 276 277 279 280 281 282 283 283 284 284 284 285 286 287 288 288 288 287 287 286 287 289 288 287 288 289 289 287 285 284 279 278 286 292 292 290 289 289 290 291 293 291 288 288 288 288 292 294 293 291 289 289 287 285 283
265 266 266 267 267 268 268 269 269 270 270 270 271 271 271 272 272 272 273 273 274 274 275 275 276 278 278 279 278 278 276 275 274 275 275 276 276 278 279 279 281 281 282 283 284 285 286 286 286 286 286 286 287 289 290 287 287 288 286 285 284 285 287 286 284 286 290 290 289 287 287 288 292 293 290 288 288 288 290 292 290 288 288 288 286 283 283 283
265 266 266 267 267 268 268 268 269 269 270 270 270 271 271 271 272 272 273 273 273 274 275 275 276 276 277 279 277 276 275 274 273 273 273 273 274 275 276 277 279 280 282 283 284 285 285 284 284 284 285 286 289 292 290 287 288 286 282 284 286 286 288 290 289 287 288 289 288 286 286 288 291 291 288 288 290 291 293 293 289 287 288 287 284 281 281 280
265 265 265 266 266 267 267 268 268 268 269 269 270 270 271 271 271 272 272 272 273 274 274 275 276 276 276 277 277 275 273 271 271 270 270 271 272 274 275 276 277 279 280 282 284 284 283 282 282 282 284 288 292 292 287 285 286 284 283 285 286 287 288 290 292 292 289 287 286 286 287 290 290 288 288 290 292 292 293 293 290 289 289 287 283 282 281 280
264 265 265 266 267 267 268 268 269 269 269 270 270 270 270 271 271 271 272 272 273 273 274 274 274 275 276 276 276 275 272 270 269 268 269 270 271 273 273 274 276 278 279 281 283 282 281 281 280 281 286 291 292 287 283 283 284 284 285 285 286 287 288 290 294 294 291 287 285 285 287 289 289 289 291 293 293 292 293 292 289 289 288 284 283 284 283 279
265 266 266 267 267 268 269 269 270 270 271 271 271 271 271 271 271 271 272 273 273 273 274 275 275 275 276 277 276 274 272 271 270 269 269 269 270 270 271 273 275 277 279 280 280 278 279 280 280 284 289 289 284 281 282 284 285 285 285 285 286 287 287 291 292 290 290 287 285 286 286 287 289 291 293 294 292 291 294 292 288 288 284 282 283 284 280 274
265 266 267 267 268 269 269 270 270 271 271 271 272 272 272 272 271 271 271 272 273 274 274 275 276 277 278 277 276 276 275 274 273 273 271 270 269 269 271 272 274 275 277 277 276 277 279 279 281 286 286 281 279 281 283 285 285 285 285 285 286 287 288 290 288 287 287 285 285 288 286 285 287 290 292 293 292 294 296 292 287 285 280 281 284 279 273 271
266 266 267 267 268 269 269 270 270 271 271 271 272 272 272 272 272 272 271 269 270 273 275 276 276 277 277 277 276 276 276 277 277 276 274 273 271 271 272 272 273 274 275 274 276 278 278 278 281 282 279 278 280 282 283 283 283 284 285 285 285 286 288 287 285 284 283 282 285 287 286 285 286 287 288 290 293 297 296 290 287 281 275 279 283 279 274 272
266 266 266 267 267 268 268 269 270 270 271 271 272 272 272 272 272 272 271 270 269 269 271 274 275 275 276 276 276 276 277 278 279 278 277 276 275 274 273 273 274 274 274 275 277 278 277 278 279 277 276 278 280 280 280 281 281 282 283 283 284 285 286 284 283 283 282 283 285 286 288 289 287 285 284 285 291 296 293 288 287 283 276 277 281 281 278 276
265 265 266 266 266 267 267 268 269 270 270 271 272 272 272 272 271 271 272 272 272 270 270 269 270 271 273 274 275 276 278 279 279 279 279 278 277 276 274 274 273 273 274 276 276 275 275 276 276 276 276 277 277 278 279 279 280 280 281 281 281 282 281 281 282 284 283 283 285 288 290 290 289 287 285 285 289 291 285 281 283 282 276 275 277 275 272 272
263 263 264 265 265 266 267 268 269 269 269 270 271 271 271 271 272 272 273 274 274 274 273 270 267 267 270 272 274 276 277 278 279 279 278 277 277 276 275 274 273 273 274 274 273 272 272 273 274 274 274 275 275 277 278 279 280 280 279 278 279 279 278 279 281 282 283 284 285 287 287 287 288 288 287 289 292 289 281 276 278 279 274 273 273 267 260 261
262 262 263 264 265 266 267 268 269 269 269 269 269 270 270 271 272 273 274 274 275 275 275 274 271 270 270 271 274 275 276 277 277 277 277 277 276 276 276 275 275 274 273 272 270 270 270 271 271 271 272 272 273 274 277 279 279 278 278 277 277 277 277 278 279 279 281 283 283 284 283 282 283 284 287 291 292 287 279 276 276 274 270 270 272 266 254 253
263 264 264 265 265 266 267 268 268 268 268 268 269 269 270 271 272 272 273 274 275 275 276 276 277 276 275 275 275 276 276 276 277 277 277 277 277 277 276 276 275 274 272 271 271 272 272 271 270 269 269 270 271 274 276 277 276 276 277 277 276 276 276 276 277 277 278 280 281 281 280 279 280 282 285 289 289 287 283 281 278 271 269 270 271 268 260 258
265 266 266 266 266 266 267 268 268 268 268 268 269 269 270 271 272 272 273 274 275 275 275 277 279 280 280 280 279 278 278 278 278 279 278 278 277 276 275 274 273 272 271 271 272 274 273 272 271 270 269 270 272 274 274 274 274 275 276 275 275 275 275 274 274 274 274 276 277 276 277 278 278 281 284 285 285 287 288 287 284 277 273 273 272 270 268 269
267 266 266 267 267 267 267 268 268 268 268 269 269 270 271 271 272 273 273 273 274 274 276 278 280 280 280 281 282 282 281 280 279 278 278 278 278 277 276 274 272 272 271 271 272 273 273 272 272 272 272 273 273 273 272 273 273 273 274 274 274 273 273 272 272 272 272 272 274 274 276 279 278 279 280 278 280 284 286 287 288 285 279 276 277 277 275 275
267 267 266 266 267 267 266 266 267 268 269 269 269 270 271 271 271 272 272 272 273 274 276 278 278 278 280 281 283 283 282 280 279 277 276 275 276 276 276 275 274 272 271 271 271 272 273 273 272 272 273 273 273 272 272 272 272 271 271 271 271 271 271 270 270 270 269 270 272 273 276 279 279 277 276 276 278 281 282 284 288 289 285 281 282 282 280 279
271 271 271 271 271 271 269 269 270 271 272 272 271 271 270 270 270 271 272 273 274 275 275 276 276 278 280 281 282 282 282 281 280 278 276 274 273 273 274 275 274 273 272 271 271 271 272 272 272 272 273 273 273 273 272 271 270 269 269 269 269 269 269 269 269 268 268 270 272 274 275 276 274 274 275 276 277 277 279 282 285 286 286 285 285 282 280 279
269 269 270 271 272 271 270 269 271 274 275 274 274 274 273 272 270 270 272 273 274 275 276 276 277 278 279 280 281 282 282 283 282 281 279 277 275 273 273 273 273 273 273 273 273 272 271 272 273 273 273 274 274 274 274 273 272 271 271 270 269 269 269 269 269 269 269 271 273 275 275 272 269 270 271 272 274 276 278 281 282 282 283 284 284 284 281 278
265 264 264 263 264 264 264 264 266 270 273 273 272 272 273 274 272 272 274 275 274 276 278 278 277 278 279 280 281 281 282 282 282 283 283 283 281 278 275 273 274 275 275 275 275 274 273 273 274 275 275 275 277 277 276 275 275 275 274 274 272 271 271 270 270 271 272 273 273 273 271 268 267 268 267 268 271 275 277 277 278 279 280 280 282 284 285 283
263 263 263 263 263 263 265 266 266 267 270 270 269 268 269 274 275 275 276 276 275 275 275 276 276 276 277 277 278 279 280 279 279 281 281 281 281 281 279 278 278 280 283 284 283 281 278 275 275 277 277 277 279 279 278 276 276 275 275 275 273 272 273 273 273 274 273 273 271 269 267 266 267 268 268 269 270 272 274 274 274 276 277 278 280 282 283 284
265 265 265 266 266 267 267 268 268 267 267 267 266 264 267 272 273 273 273 273 273 272 272 272 272 273 273 273 274 275 276 277 277 276 275 275 276 277 278 279 280 281 284 288 287 284 282 280 280 281 281 280 281 281 281 279 277 276 276 274 274 275 274 272 272 271 270 270 268 267 266 265 266 268 269 270 269 269 271 273 274 276 277 277 279 280 280 281
272 273 272 270 270 270 269 267 267 266 266 266 265 264 267 269 269 269 270 271 272 273 272 271 269 269 270 270 271 271 271 272 274 275 275 275 275 275 275 277 278 278 278 278 278 275 275 277 280 281 281 280 280 279 279 278 278 278 277 276 276 276 273 271 270 269 267 267 266 267 268 266 265 265 265 266 268 270 272 273 274 276 277 278 277 278 278 278
275 270 267 267 267 268 268 267 267 268 267 266 265 265 265 266 267 269 271 272 272 272 272 270 268 268 268 268 268 269 269 271 272 274 275 276 277 276 277 278 278 278 276 274 273 272 272 273 273 275 276 275 275 275 275 274 275 275 275 276 275 274 272 272 272 271 270 269 268 266 266 267 265 263 262 264 268 272 272 271 272 273 275 276 276 276 277 278
268 259 256 257 257 259 262 263 264 266 266 265 266 266 266 267 269 270 271 272 273 273 273 273 271 270 270 269 268 268 270 272 273 274 275 276 276 276 277 278 278 277 277 275 274 274 274 273 272 272 273 273 273 274 274 274 273 273 274 274 273 273 273 274 275 276 275 274 274 272 269 267 265 262 264 267 268 270 270 270 271 272 272 274 274 274 276 277
261 257 257 258 259 262 264 264 264 264 264 265 266 267 267 268 268 269 271 274 275 276 276 276 276 275 274 273 273 272 273 275 276 277 278 277 277 276 276 278 278 278 277 276 275 275 275 275 273 272 272 273 273 273 274 274 274 274 275 274 273 273 274 275 276 278 278 277 277 276 272 267 265 264 266 268 266 265 267 268 269 270 271 272 274 274 276 277
264 262 261 261 264 269 271 271 271 270 269 268 268 268 267 268 268 270 273 275 276 278 278 278 279 279 278 278 278 278 278 279 279 280 280 279 280 280 280 280 280 278 277 276 276 276 275 275 276 275 274 273 274 274 274 274 273 272 273 273 274 274 276 276 274 274 274 274 273 273 269 263 263 264 264 265 264 263 263 264 265 267 268 270 272 273 274 276
269 268 266 266 267 270 273 274 274 274 273 272 271 271 272 272 272 272 273 275 277 278 279 280 280 281 282 281 281 281 281 280 280 280 280 281 281 281 281 281 280 279 278 278 277 277 278 278 278 277 275 274 274 275 274 273 272 272 272 272 273 273 273 270 268 265 263 264 265 269 270 264 259 258 257 257 258 260 262 264 265 266 267 267 268 268 269 270
273 272 271 270 269 270 271 273 274 275 275 274 274 274 275 274 274 274 275 276 277 278 279 280 280 281 281 282 282 281 281 280 280 280 280 280 280 279 279 279 279 279 279 279 279 279 279 279 278 277 276 275 274 273 272 271 272 271 271 271 271 270 267 263 263 262 261 262 263 268 272 268 257 250 252 255 257 259 262 266 267 267 267 267 267 266 267 268
273 273 272 272 272 271 271 272 274 275 276 276 276 274 274 274 274 274 275 276 276 277 278 278 279 279 279 280 280 279 279 279 279 279 279 279 279 278 278 278 279 279 279 280 280 280 279 278 278 278 277 276 274 272 272 272 272 271 270 270 269 268 267 265 265 267 267 267 266 269 272 271 263 255 255 258 261 262 264 266 267 267 266 266 266 266 267 267
272 272 272 272 272 272 272 273 274 274 275 275 275 274 274 274 275 275 274 274 274 275 275 275 276 276 277 277 277 277 277 277 277 278 277 277 277 277 277 277 277 277 277 277 277 278 277 277 277 278 278 276 274 272 272 272 271 271 270 269 268 268 269 269 269 271 271 270 270 270 271 272 270 266 263 263 264 265 265 266 267 268 268 268 268 268 268 268
271 271 272 272 272 272 273 274 274 274 274 275 275 274 274 275 276 276 274 274 274 274 274 274 274 274 274 274 274 274 274 274 275 275 275 275 275 275 274 274 274 273 271 271 271 272 272 272 273 274 274 274 274 273 272 271 271 270 270 269 269 270 271 271 271 271 271 272 272 271 272 273 273 272 271 269 269 269 268 268 269 270 270 270 270 270 270 271
271 271 272 272 272 273 274 275 275 275 276 277 276 276 277 278 278 277 276 276 276 276 276 276 275 274 273 273 273 273 273 272 272 273 274 274 274 274 273 273 272 271 270 270 270 270 271 270 270 270 270 271 272 271 270 272 273 273 273 272 272 272 272 272 272 271 272 273 273 272 274 275 274 274 274 274 275 275 275 274 273 272 272 272 273 273 273 274
271 272 272 272 273 274 275 275 276 277 277 277 278 278 279 280 280 279 279 278 277 276 276 276 276 275 275 275 274 273 273 272 271 272 273 273 273 273 273 272 271 271 271 271 270 270 270 269 268 268 268 268 269 269 271 272 273 273 273 273 273 273 273 272 272 273 274 274 274 274 275 276 276 276 276 276 276 276 275 275 274 273 273 274 274 274 275 275
272 272 273 273 273 274 275 275 276 277 277 277 278 279 280 280 280 280 280 279 278 278 278 277 276 276 275 275 275 274 274 273 273 273 273 273 273 272 272 271 271 270 270 271 271 270 270 270 269 269 268 268 268 270 271 272 272 272 272 272 272 272 272 272 273 274 274 273 274 275 276 275 275 275 273 272 271 271 271 271 272 272 273 274 275 275 275 275
270 271 272 272 273 274 275 275 276 276 277 277 278 279 280 279 279 279 279 279 279 279 278 278 278 277 276 275 275 274 274 275 274 274 274 274 274 273 272 272 271 270 270 270 270 271 271 271 271 270 270 270 270 270 271 272 272 272 272 272 273 274 274 274 274 275 275 275 275 275 274 273 273 273 272 272 271 270 269 269 269 270 271 272 273 274 274 275
270 270 271 272 272 273 274 275 275 276 277 277 278 279 279 279 279 279 279 279 279 279 278 278 278 278 277 276 275 275 275 275 275 275 274 274 274 274 274 273 272 272 271 270 270 270 271 271 271 271 271 271 270 271 271 271 272 272 271 272 273 274 275 276 276 277 276 275 275 274 274 274 274 274 273 272 272 271 271 270 270 269 269 270 270 271 272 273
269 269 270 271 271 272 273 274 274 275 275 276 278 278 278 278 279 279 279 279 279 280 279 279 279 279 278 277 276 276 276 275 275 275 274 274 274 274 274 274 273 273 272 272 271 270 271 272 272 272 272 271 271 271 271 271 271 271 271 272 274 275 277 277 276 276 274 273 273 273 273 274 273 272 271 271 270 270 269 268 268 268 268 269 270 271 273 276
268 268 269 269 270 271 271 272 273 273 274 275 276 277 277 278 278 278 279 278 279 279 280 280 280 280 280 280 280 279 279 278 277 277 276 275 275 274 274 273 273 274 274 273 272 271 271 272 272 272 272 272 272 272 272 272 271 271 273 276 276 276 276 274 272 270 269 269 270 271 271 272 272 272 273 273 272 271 270 270 270 270 271 271 271 272 274 276
Height
5874 5874 5874 5875 5875 5875 5876 5876 5876 5877 5877 5877 5877 5878 5878 5878 5878 5878 5879 5879 5879 5879 5880 5880 5880 5880 5880 5880 5880 5880 5879 5879 5879 5879 5879 5879 5879 5878 5878 5877 5877 5877 5876 5876 5876 5875 5875 5874 5874 5874 5873 5873 5872 5872 5871 5871 5870 5870 5870 5870 5868 5867 5866 5865 5864 5865 5865 5864 5864 5863 5863 5863 5862 5860 5861 5861 5860 5859 5859 5857 5857 5858 5856 5855 5856 5856 5857 5857
5872 5872 5872 5873 5873 5873 5874 5874 5874 5875 5875 5875 5875 5875 5876 5876 5876 5877 5877 5877 5877 5878 5878 5878 5878 5878 5878 5878 5878 5878 5877 5877 5876 5876 5876 5876 5876 5876 5875 5875 5875 5875 5874 5874 5874 5873 5873 5872 5872 5871 5871 5870 5870 5869 5869 5868 5868 5868 5868 5868 5866 5864 5865 5863 5861 5862 5862 5863 5862 5861 5860 5860 5859 5858 5858 5858 5857 5856 5856 5854 5853 5855 5854 5852 5853 5854 5855 5854
5869 5870 5870 5870 5871 5871 5872 5872 5872 5873 5873 5873 5873 5873 5874 5874 5874 5874 5875 5875 5875 5875 5875 5876 5876 5876 5876 5876 5876 5876 5875 5874 5874 5874 5874 5874 5874 5873 5873 5873 5873 5872 5872 5872 5871 5871 5870 5870 5869 5869 5868 5868 5868 5867 5866 5866 5866 5867 5866 5866 5865 5862 5863 5861 5858 5859 5859 5860 5860 5858 5858 5857 5856 5855 5855 5855 5854 5854 5853 5851 5851 5852 5851 5850 5850 5851 5852 5851
5867 5867 5868 5868 5868 5869 5869 5869 5870 5870 5870 5871 5871 5871 5871 5871 5872 5872 5872 5872 5873 5873 5873 5873 5873 5873 5873 5873 5873 5873 5873 5872 5871 5871 5871 5871 5871 5871 5871 5870 5870 5870 5869 5869 5869 5868 5868 5868 5867 5866 5866 5866 5865 5865 5864 5863 5863 5865 5864 5864 5862 5861 5862 5859 5856 5856 5856 5856 5857 5856 5855 5855 5854 5853 5852 5851 5851 5852 5850 5848 5848 5849 5848 5847 5847 5848 5848 5848
5864 5864 5865 5865 5866 5866 5866 5867 5867 5868 5868 5868 5868 5869 5869 5869 5869 5869 5870 5870 5870 5870 5870 5870 5870 5870 5870 5870 5871 5871 5870 5870 5868 5868 5869 5868 5868 5868 5868 5868 5867 5867 5867 5866 5866 5866 5865 5865 5864 5864 5864 5863 5863 5862 5861 5860 5860 5862 5862 5861 5859 5858 5860 5858 5853 5853 5853 5852 5853 5852 5852 5853 5852 5850 5849 5848 5848 5849 5847 5844 5844 5845 5844 5844 5844 5845 5845 5845
5860 5861 5861 5862 5862 5863 5863 5864 5864 5865 5865 5865 5866 5866 5866 5866 5866 5866 5867 5867 5867 5867 5867 5867 5867 5867 5867 5868 5868 5868 5868 5867 5865 5865 5866 5866 5866 5866 5865 5865 5865 5865 5864 5864 5863 5863 5863 5862 5862 5861 5861 5861 5860 5859 5858 5857 5857 5859 5860 5858 5856 5855 5857 5856 5852 5851 5850 5849 5849 5848 5848 5850 5849 5847 5847 5846 5847 5847 5844 5841 5841 5841 5840 5840 5841 5842 5842 5842
5857 5857 5858 5858 5859 5859 5860 5860 5861 5861 5862 5862 5862 5863 5863 5863 5863 5863 5863 5863 5864 5864 5864 5864 5864 5864 5864 5865 5865 5866 5866 5863 5860 5863 5864 5863 5863 5863 5862 5862 5862 5862 5861 5861 5861 5860 5860 5859 5859 5858 5858 5858 5858 5857 5855 5854 5854 5855 5856 5855 5853 5853 5853 5852 5850 5849 5848 5846 5846 5843 5844 5846 5845 5843 5845 5846 5845 5843 5840 5839 5838 5838 5837 5838 5839 5839 5839 5839
5853 5854 5854 5855 5855 5856 5856 5856 5857 5857 5858 5858 5859 5859 5859 5860 5860 5860 5860 5860 5860 5860 5860 5860 5861 5861 5861 5862 5863 5864 5864 5859 5857 5860 5861 5861 5860 5859 5859 5859 5859 5859 5859 5859 5858 5858 5857 5856 5856 5855 5855 5855 5854 5854 5852 5851 5851 5852 5852 5851 5850 5850 5850 5849 5848 5847 5845 5843 5842 5839 5840 5842 5841 5839 5843 5845 5843 5840 5837 5837 5836 5835 5836 5836 5837 5837 5836 5836
5849 5850 5850 5851 5851 5852 5852 5853 5853 5853 5854 5854 5854 5855 5855 5856 5856 5856 5856 5856 5856 5856 5857 5857 5858 5858 5858 5859 5860 5862 5861 5855 5855 5858 5858 5858 5857 5857 5856 5857 5857 5856 5856 5856 5855 5854 5854 5853 5852 5851 5851 5851 5851 5851 5849 5848 5849 5849 5848 5848 5848 5847 5847 5846 5845 5844 5841 5840 5838 5835 5836 5838 5838 5837 5841 5844 5841 5836 5833 5835 5835 5833 5834 5834 5834 5834 5833 5833
5846 5846 5847 5847 5848 5848 5848 5849 5849 5849 5850 5850 5851 5851 5852 5852 5852 5852 5852 5852 5852 5852 5853 5853 5854 5854 5855 5856 5858 5861 5857 5853 5854 5855 5854 5854 5853 5853 5854 5853 5853 5853 5852 5852 5851 5850 5849 5849 5848 5848 5847 5847 5847 5847 5846 5845 5845 5845 5844 5844 5845 5844 5845 5844 5843 5841 5837 5836 5835 5831 5831 5834 5835 5834 5839 5841 5836 5831 5830 5832 5832 5831 5831 5831 5830 5830 5829 5830
5843 5843 5843 5844 5844 5844 5845 5845 5845 5845 5846 5846 5847 5847 5848 5848 5849 5849 5848 5848 5848 5849 5849 5850 5850 5851 5852 5853 5856 5857 5853 5852 5852 5851 5850 5849 5849 5850 5851 5850 5850 5850 5849 5849 5847 5846 5845 5845 5844 5844 5842 5842 5843 5843 5843 5842 5841 5841 5839 5840 5841 5840 5842 5842 5839 5838 5834 5832 5831 5827 5826 5831 5832 5832 5836 5836 5830 5827 5827 5829 5829 5828 5829 5828 5826 5825 5825 5826
5839 5840 5840 5840 5841 5841 5841 5841 5842 5842 5842 5842 5843 5844 5844 5845 5845 5845 5845 5845 5845 5846 5846 5846 5846 5847 5848 5850 5853 5853 5851 5851 5850 5848 5846 5845 5845 5847 5847 5847 5847 5846 5846 5845 5844 5843 5841 5841 5840 5839 5838 5838 5839 5839 5839 5839 5838 5837 5835 5835 5837 5836 5838 5840 5835 5833 5830 5828 5828 5823 5820 5827 5831 5830 5832 5831 5826 5824 5823 5825 5827 5826 5826 5824 5822 5822 5822 5822
5835 5836 5836 5837 5837 5838 5838 5838 5838 5838 5839 5839 5839 5840 5840 5841 5841 5841 5841 5841 5841 5842 5842 5842 5842 5842 5843 5847 5850 5849 5848 5848 5847 5844 5842 5841 5842 5844 5844 5844 5843 5843 5842 5841 5840 5840 5838 5837 5836 5835 5835 5834 5835 5835 5835 5836 5834 5833 5831 5829 5832 5832 5835 5837 5830 5828 5828 5825 5825 5819 5813 5821 5828 5827 5829 5827 5823 5822 5821 5821 5823 5824 5823 5820 5819 5818 5819 5819
5831 5832 5832 5833 5833 5834 5834 5834 5834 5835 5835 5835 5836 5836 5836 5837 5837 5838 5838 5837 5837 5837 5838 5837 5838 5837 5838 5843 5846 5845 5845 5844 5842 5841 5839 5839 5839 5840 5840 5840 5840 5839 5838 5838 5837 5836 5834 5834 5832 5831 5831 5830 5830 5831 5832 5831 5829 5829 5827 5825 5826 5825 5828 5833 5827 5825 5827 5824 5821 5816 5808 5814 5823 5825 5825 5822 5820 5820 5818 5819 5821 5820 5819 5817 5816 5815 5815 5815
5827 5828 5828 5828 5829 5829 5830 5830 5831 5831 5831 5831 5832 5832 5832 5832 5832 5833 5833 5833 5833 5833 5833 5833 5833 5832 5833 5839 5841 5841 5841 5840 5838 5837 5836 5836 5836 5836 5837 5836 5836 5835 5834 5834 5833 5832 5831 5829 5828 5826 5826 5826 5826 5827 5828 5826 5824 5825 5823 5820 5820 5817 5819 5825 5825 5825 5825 5821 5817 5812 5805 5808 5817 5822 5822 5818 5817 5817 5816 5817 5818 5817 5816 5815 5813 5812 5810 5811
5823 5823 5824 5824 5824 5825 5825 5826 5826 5827 5827 5827 5827 5827 5828 5827 5828 5828 5828 5829 5828 5828 5829 5828 5829 5828 5828 5833 5837 5836 5836 5835 5834 5833 5833 5833 5832 5833 5833 5832 5831 5831 5830 5829 5829 5828 5827 5825 5823 5822 5821 5822 5823 5824 5823 5819 5819 5822 5818 5813 5814 5812 5811 5816 5821 5824 5823 5817 5813 5808 5802 5802 5811 5816 5816 5814 5813 5812 5813 5815 5815 5814 5813 5812 5811 5809 5807 5807
5818 5819 5819 5819 5820 5820 5821 5821 5822 5822 5822 5823 5823 5823 5823 5823 5823 5823 5823 5824 5824 5824 5824 5824 5825 5823 5823 5828 5831 5832 5831 5830 5830 5829 5829 5829 5829 5829 5828 5828 5827 5826 5825 5825 5824 5824 5822 5820 5818 5817 5817 5818 5820 5821 5817 5813 5814 5816 5812 5809 5808 5808 5807 5808 5813 5820 5820 5814 5808 5803 5798 5799 5806 5809 5810 5811 5809 5808 5809 5811 5811 5810 5809 5809 5807 5805 5804 5803
5814 5814 5814 5814 5815 5815 5816 5816 5817 5817 5817 5818 5819 5819 5819 5819 5819 5818 5818 5818 5819 5819 5819 5819 5819 5818 5819 5822 5824 5826 5826 5824 5825 5825 5825 5825 5825 5824 5824 5823 5822 5822 5821 5820 5819 5819 5816 5814 5813 5812 5813 5816 5818 5816 5810 5808 5810 5808 5807 5806 5804 5804 5804 5803 5806 5812 5813 5808 5802 5798 5795 5795 5799 5802 5805 5807 5806 5805 5806 5807 5806 5806 5805 5804 5802 5801 5801 5800
5809 5809 5809 5809 5810 5810 5811 5811 5812 5812 5812 5813 5813 5814 5814 5814 5814 5814 5813 5813 5814 5814 5813 5814 5814 5813 5813 5817 5818 5819 5819 5819 5819 5820 5821 5821 5821 5820 5819 5818 5818 5817 5816 5815 5815 5813 5811 5809 5807 5808 5812 5814 5813 5809 5804 5804 5805 5803 5802 5801 5800 5799 5799 5801 5803 5804 5803 5799 5796 5795 5792 5790 5792 5795 5800 5804 5803 5801 5803 5804 5802 5802 5801 5799 5798 5798 5797 5796
5804 5804 5804 5804 5805 5805 5805 5806 5806 5807 5807 5807 5808 5808 5809 5809 5808 5808 5808 5809 5809 5809 5808 5808 5808 5808 5809 5811 5811 5810 5811 5812 5814 5816 5817 5817 5817 5815 5814 5814 5813 5811 5811 5811 5809 5807 5806 5803 5801 5806 5810 5809 5806 5802 5800 5800 5800 5799 5797 5796 5795 5794 5794 5799 5799 5798 5796 5790 5788 5790 5789 5787 5787 5789 5793 5798 5798 5797 5799 5799 5799 5798 5796 5794 5794 5794 5793 5791
5798 5798 5799 5799 5799 5799 5800 5800 5801 5801 5802 5802 5802 5802 5802 5803 5803 5802 5803 5804 5804 5803 5802 5803 5802 5802 5804 5805 5804 5803 5803 5805 5808 5811 5812 5812 5812 5810 5810 5809 5807 5806 5807 5805 5802 5802 5801 5797 5798 5805 5805 5801 5799 5798 5797 5796 5795 5794 5793 5791 5790 5789 5790 5793 5794 5793 5791 5785 5782 5784 5783 5783 5785 5785 5787 5791 5793 5794 5794 5794 5794 5795 5792 5790 5790 5789 5788 5787
5792 5793 5793 5794 5794 5794 5794 5794 5795 5795 5796 5797 5797 5797 5796 5796 5796 5796 5796 5797 5800 5799 5797 5798 5797 5796 5798 5797 5797 5797 5796 5798 5802 5804 5804 5805 5805 5805 5804 5803 5802 5802 5800 5798 5798 5799 5795 5791 5796 5800 5797 5794 5794 5794 5792 5790 5790 5789 5788 5786 5785 5786 5786 5786 5786 5786 5786 5781 5779 5780 5776 5777 5781 5781 5781 5785 5788 5789 5789 5788 5789 5790 5789 5787 5786 5784 5784 5783
5786 5787 5787 5787 5787 5788 5788 5788 5788 5789 5790 5791 5791 5791 5791 5791 5791 5790 5789 5789 5793 5796 5794 5793 5791 5790 5791 5790 5790 5791 5791 5793 5795 5796 5797 5797 5798 5798 5797 5796 5796 5795 5794 5794 5795 5793 5788 5787 5792 5793 5790 5790 5789 5787 5786 5784 5784 5785 5784 5782 5780 5782 5781 5777 5778 5779 5780 5778 5776 5775 5772 5770 5775 5775 5774 5779 5785 5785 5784 5783 5785 5786 5785 5784 5782 5780 5779 5777
5780 5781 5781 5781 5781 5782 5782 5782 5782 5783 5784 5785 5784 5784 5785 5785 5785 5785 5785 5783 5784 5789 5790 5789 5787 5784 5784 5784 5784 5785 5786 5788 5788 5789 5790 5789 5789 5790 5790 5790 5789 5788 5789 5790 5790 5786 5783 5783 5785 5786 5785 5785 5783 5781 5780 5778 5779 5780 5779 5777 5776 5776 5775 5772 5771 5771 5772 5773 5772 5771 5767 5764 5767 5768 5766 5772 5780 5781 5779 5779 5780 5781 5781 5780 5779 5777 5774 5773
5774 5774 5775 5775 5775 5776 5776 5776 5776 5776 5778 5778 5777 5778 5779 5779 5779 5779 5779 5778 5778 5779 5779 5779 5781 5780 5779 5778 5779 5780 5781 5782 5782 5782 5782 5782 5781 5782 5782 5782 5781 5782 5784 5784 5783 5780 5778 5778 5780 5781 5780 5778 5777 5775 5774 5773 5774 5774 5773 5772 5771 5770 5769 5768 5767 5765 5764 5766 5768 5767 5764 5760 5760 5761 5760 5763 5771 5774 5772 5774 5776 5777 5775 5775 5774 5772 5770 5769
5767 5768 5768 5769 5770 5770 5770 5770 5769 5770 5771 5771 5771 5771 5772 5772 5773 5774 5774 5773 5772 5772 5769 5767 5770 5774 5774 5774 5774 5776 5776 5776 5776 5775 5775 5775 5775 5775 5775 5775 5775 5776 5777 5776 5775 5773 5773 5775 5775 5775 5774 5772 5770 5770 5770 5768 5767 5766 5766 5767 5766 5765 5764 5763 5763 5761 5760 5759 5760 5761 5760 5756 5755 5756 5756 5757 5762 5765 5765 5767 5772 5772 5770 5769 5768 5767 5766 5765
5760 5761 5762 5763 5764 5764 5764 5763 5763 5764 5764 5764 5764 5765 5766 5766 5767 5768 5768 5767 5766 5765 5760 5757 5761 5765 5767 5768 5769 5770 5769 5769 5769 5769 5769 5769 5768 5769 5768 5768 5768 5768 5769 5768 5766 5766 5767 5769 5769 5768 5768 5765 5764 5765 5765 5762 5760 5760 5761 5760 5760 5760 5760 5759 5758 5757 5755 5755 5754 5753 5753 5751 5751 5752 5753 5752 5752 5753 5756 5760 5764 5766 5765 5763 5761 5760 5761 5760
5754 5755 5756 5757 5757 5757 5757 5757 5756 5757 5757 5757 5758 5758 5759 5761 5761 5762 5762 5761 5759 5757 5754 5753 5756 5758 5758 5760 5761 5762 5762 5763 5762 5762 5762 5761 5761 5762 5761 5761 5761 5760 5761 5760 5759 5760 5761 5761 5761 5760 5760 5759 5760 5760 5758 5755 5754 5754 5755 5754 5753 5754 5754 5753 5752 5751 5750 5749 5747 5746 5747 5747 5747 5749 5749 5748 5744 5743 5747 5750 5755 5758 5758 5757 5755 5753 5754 5752
5749 5749 5750 5751 5751 5751 5751 5750 5749 5750 5750 5750 5751 5752 5753 5755 5755 5756 5756 5754 5751 5749 5749 5750 5751 5751 5751 5752 5752 5754 5755 5755 5755 5754 5754 5753 5753 5754 5754 5754 5754 5754 5754 5753 5753 5754 5753 5753 5753 5752 5752 5753 5753 5752 5750 5749 5748 5749 5749 5748 5747 5747 5747 5746 5745 5744 5744 5742 5740 5740 5742 5743 5745 5746 5745 5743 5740 5739 5741 5742 5745 5749 5749 5750 5749 5746 5745 5742
5743 5743 5744 5744 5745 5745 5745 5744 5742 5743 5743 5743 5744 5746 5747 5748 5750 5750 5748 5746 5744 5744 5746 5746 5744 5744 5745 5746 5746 5746 5746 5746 5747 5747 5747 5747 5747 5747 5747 5746 5746 5746 5746 5746 5747 5747 5746 5746 5745 5744 5745 5745 5744 5744 5744 5744 5742 5742 5742 5741 5740 5739 5739 5738 5737 5738 5735 5734 5735 5737 5740 5741 5740 5739 5737 5738 5738 5735 5736 5737 5738 5739 5738 5740 5741 5738 5736 5733
5737 5737 5737 5738 5738 5738 5739 5737 5736 5736 5736 5736 5737 5739 5740 5741 5743 5742 5740 5739 5739 5740 5741 5740 5738 5739 5740 5741 5740 5738 5738 5737 5738 5739 5739 5740 5741 5741 5741 5740 5739 5738 5738 5738 5740 5740 5739 5738 5738 5738 5738 5737 5737 5737 5738 5737 5736 5735 5735 5735 5734 5732 5731 5729 5729 5730 5727 5727 5732 5734 5736 5737 5733 5730 5731 5734 5733 5730 5730 5731 5732 5733 5731 5730 5731 5730 5728 5725
5732 5731 5731 5732 5732 5732 5732 5731 5729 5730 5730 5731 5731 5731 5734 5735 5735 5735 5733 5733 5733 5734 5735 5735 5734 5735 5734 5734 5734 5733 5731 5730 5730 5730 5731 5732 5734 5736 5736 5735 5734 5732 5731 5731 5732 5732 5732 5732 5732 5733 5733 5732 5731 5731 5731 5730 5729 5729 5729 5728 5727 5725 5724 5721 5720 5722 5721 5724 5728 5728 5729 5727 5724 5726 5729 5728 5726 5726 5727 5726 5725 5726 5725 5723 5721 5719 5718 5716
5726 5726 5726 5726 5727 5726 5726 5725 5723 5723 5724 5726 5725 5725 5727 5728 5727 5727 5727 5728 5728 5728 5730 5729 5729 5729 5728 5728 5728 5726 5725 5724 5723 5724 5724 5725 5726 5729 5730 5730 5729 5726 5724 5725 5725 5724 5725 5727 5727 5727 5728 5727 5726 5726 5725 5724 5723 5722 5723 5722 5720 5719 5716 5713 5713 5715 5716 5719 5721 5721 5720 5716 5716 5721 5724 5724 5724 5723 5721 5719 5718 5719 5719 5717 5713 5709 5706 5705
5720 5720 5720 5720 5721 5720 5719 5719 5718 5717 5717 5719 5720 5718 5720 5721 5720 5720 5721 5723 5722 5723 5724 5723 5723 5723 5723 5723 5722 5720 5718 5716 5718 5720 5719 5719 5719 5721 5723 5724 5723 5721 5719 5718 5718 5717 5717 5720 5722 5721 5722 5722 5720 5720 5718 5717 5716 5716 5718 5716 5713 5714 5711 5707 5708 5709 5709 5710 5711 5711 5709 5709 5711 5714 5717 5719 5720 5717 5714 5711 5710 5710 5711 5710 5705 5699 5697 5698
5712 5713 5713 5714 5714 5713 5713 5712 5712 5711 5710 5712 5712 5711 5714 5717 5716 5715 5715 5715 5714 5716 5718 5717 5717 5717 5716 5716 5715 5715 5712 5709 5712 5713 5713 5713 5714 5715 5717 5719 5718 5717 5715 5713 5712 5711 5708 5711 5714 5712 5713 5715 5713 5712 5711 5709 5709 5710 5711 5708 5707 5710 5708 5703 5701 5702 5702 5699 5699 5701 5701 5705 5709 5709 5711 5713 5711 5709 5706 5703 5702 5701 5700 5699 5695 5692 5692 5694
5705 5706 5706 5707 5707 5706 5705 5705 5705 5704 5703 5705 5703 5705 5711 5712 5711 5710 5710 5709 5708 5708 5709 5709 5711 5710 5709 5710 5710 5709 5707 5705 5705 5705 5705 5706 5706 5709 5712 5714 5714 5713 5711 5708 5706 5704 5702 5705 5708 5704 5703 5706 5705 5705 5705 5703 5701 5701 5701 5702 5703 5703 5701 5696 5692 5694 5693 5688 5690 5694 5694 5699 5706 5704 5704 5706 5703 5701 5698 5696 5694 5691 5688 5687 5688 5687 5686 5686
5699 5699 5699 5700 5701 5698 5697 5698 5697 5696 5697 5696 5693 5698 5705 5705 5705 5705 5704 5703 5702 5700 5700 5699 5702 5703 5702 5703 5705 5703 5699 5699 5700 5698 5699 5699 5698 5701 5706 5707 5707 5706 5705 5701 5698 5697 5694 5696 5702 5699 5695 5697 5699 5697 5697 5697 5695 5693 5693 5695 5696 5694 5692 5689 5684 5683 5683 5678 5680 5688 5690 5693 5698 5697 5697 5699 5698 5692 5689 5688 5684 5682 5680 5678 5679 5680 5678 5677
5692 5692 5692 5693 5693 5691 5690 5691 5690 5689 5689 5687 5688 5693 5696 5697 5699 5699 5697 5696 5694 5692 5692 5691 5693 5694 5694 5696 5698 5696 5692 5691 5691 5691 5692 5691 5691 5694 5698 5698 5698 5698 5697 5694 5690 5690 5686 5683 5691 5697 5690 5687 5692 5691 5687 5688 5688 5686 5686 5687 5687 5684 5682 5681 5676 5672 5673 5670 5669 5677 5683 5685 5690 5693 5691 5691 5690 5681 5676 5677 5674 5673 5673 5671 5671 5672 5670 5669
5685 5685 5685 5685 5685 5683 5682 5682 5682 5681 5680 5681 5685 5688 5690 5691 5692 5691 5689 5688 5686 5684 5684 5684 5684 5684 5685 5688 5688 5688 5687 5684 5682 5683 5683 5682 5683 5687 5689 5688 5689 5690 5689 5685 5682 5681 5679 5671 5675 5688 5686 5679 5683 5685 5680 5679 5680 5678 5676 5676 5676 5676 5674 5672 5669 5665 5664 5662 5660 5663 5668 5673 5684 5689 5682 5678 5677 5671 5666 5666 5665 5666 5666 5664 5664 5664 5662 5661
5677 5677 5677 5678 5676 5674 5673 5672 5672 5672 5672 5675 5680 5681 5682 5683 5684 5684 5683 5680 5678 5676 5675 5676 5676 5674 5677 5680 5679 5679 5678 5675 5675 5676 5674 5674 5675 5677 5678 5678 5679 5680 5678 5676 5674 5673 5672 5665 5663 5674 5678 5671 5673 5677 5673 5671 5671 5669 5666 5665 5667 5667 5665 5663 5660 5659 5659 5655 5652 5651 5650 5659 5677 5682 5674 5666 5660 5657 5657 5657 5657 5659 5659 5657 5656 5655 5654 5653
5667 5667 5668 5670 5668 5666 5665 5662 5663 5665 5664 5667 5673 5674 5673 5673 5675 5676 5674 5671 5670 5668 5667 5667 5667 5667 5668 5669 5671 5671 5667 5665 5668 5667 5665 5666 5668 5667 5668 5669 5668 5669 5667 5666 5665 5664 5663 5658 5654 5659 5664 5664 5666 5668 5664 5661 5661 5659 5657 5657 5659 5660 5659 5655 5650 5652 5653 5646 5643 5643 5636 5644 5666 5674 5663 5652 5645 5645 5648 5649 5648 5649 5649 5649 5648 5647 5646 5645
5658 5658 5659 5660 5659 5658 5657 5655 5657 5658 5656 5660 5666 5666 5663 5664 5666 5667 5666 5663 5661 5660 5660 5659 5659 5660 5659 5659 5662 5661 5658 5656 5658 5659 5657 5658 5660 5659 5659 5660 5659 5659 5659 5657 5656 5657 5654 5649 5645 5646 5649 5654 5657 5658 5654 5652 5653 5651 5649 5650 5652 5652 5651 5648 5641 5642 5642 5636 5635 5635 5625 5628 5652 5663 5650 5638 5638 5641 5639 5638 5639 5639 5638 5638 5638 5637 5637 5636
5650 5649 5649 5650 5649 5649 5648 5648 5651 5651 5649 5653 5657 5656 5654 5655 5657 5660 5659 5655 5652 5652 5652 5651 5651 5651 5650 5652 5652 5651 5650 5647 5647 5651 5650 5649 5652 5652 5650 5652 5652 5651 5651 5649 5648 5649 5646 5641 5638 5637 5637 5641 5646 5647 5645 5643 5643 5641 5640 5643 5644 5641 5641 5639 5634 5632 5629 5626 5629 5627 5616 5617 5635 5646 5639 5631 5633 5634 5630 5628 5628 5627 5628 5628 5628 5628 5627 5626
5642 5641 5641 5642 5641 5639 5639 5641 5643 5642 5642 5645 5645 5645 5646 5646 5648 5652 5651 5646 5644 5644 5643 5642 5643 5643 5642 5643 5642 5642 5643 5639 5637 5642 5642 5640 5643 5644 5643 5644 5646 5645 5643 5642 5641 5641 5638 5635 5633 5630 5627 5629 5634 5637 5636 5634 5633 5631 5632 5634 5633 5631 5632 5629 5627 5624 5617 5616 5622 5617 5608 5611 5622 5628 5627 5625 5624 5623 5622 5621 5618 5617 5617 5617 5616 5617 5617 5616
5633 5632 5632 5633 5632 5631 5631 5633 5634 5633 5634 5636 5635 5636 5638 5638 5640 5642 5640 5637 5636 5635 5633 5634 5635 5635 5634 5634 5633 5633 5635 5632 5629 5630 5633 5633 5634 5635 5635 5636 5637 5638 5636 5635 5635 5634 5631 5628 5628 5624 5620 5619 5623 5628 5628 5625 5623 5622 5623 5625 5624 5623 5623 5620 5618 5615 5607 5607 5611 5605 5600 5606 5612 5613 5613 5614 5613 5612 5613 5612 5610 5607 5605 5603 5604 5603 5604 5604
5624 5624 5624 5624 5623 5623 5624 5624 5624 5625 5627 5626 5625 5627 5629 5630 5631 5632 5630 5629 5627 5626 5626 5625 5626 5626 5625 5625 5625 5624 5626 5626 5621 5619 5623 5625 5624 5624 5626 5627 5628 5628 5627 5627 5627 5625 5622 5620 5620 5618 5615 5613 5614 5617 5618 5616 5613 5612 5612 5614 5615 5615 5614 5611 5608 5603 5600 5598 5596 5595 5596 5596 5599 5602 5602 5602 5603 5601 5600 5599 5598 5595 5592 5591 5591 5590 5590 5590
5615 5615 5616 5616 5614 5616 5618 5616 5615 5617 5618 5617 5615 5618 5621 5622 5621 5621 5621 5620 5619 5619 5619 5617 5617 5617 5616 5617 5616 5614 5615 5617 5614 5612 5614 5616 5616 5615 5615 5617 5619 5618 5618 5617 5616 5616 5612 5608 5611 5612 5607 5606 5607 5607 5609 5608 5604 5602 5601 5602 5605 5605 5604 5602 5597 5595 5595 5589 5582 5587 5592 5585 5586 5593 5592 5590 5591 5589 5587 5586 5584 5583 5581 5580 5579 5578 5577 5576
5607 5607 5608 5608 5607 5608 5610 5609 5608 5609 5609 5608 5606 5610 5614 5614 5612 5611 5610 5610 5610 5610 5609 5608 5609 5609 5608 5609 5607 5604 5605 5606 5606 5606 5606 5606 5608 5607 5606 5608 5609 5609 5610 5608 5606 5606 5601 5597 5601 5601 5596 5596 5599 5599 5600 5598 5594 5591 5589 5590 5593 5595 5595 5592 5588 5587 5587 5578 5572 5578 5581 5575 5575 5580 5580 5578 5579 5578 5576 5575 5573 5572 5571 5568 5567 5567 5565 5564
5599 5600 5600 5600 5600 5601 5601 5601 5601 5601 5601 5600 5598 5601 5605 5604 5604 5604 5601 5600 5601 5602 5600 5598 5599 5600 5599 5600 5598 5596 5596 5596 5596 5598 5598 5596 5597 5597 5597 5598 5598 5599 5600 5599 5597 5595 5590 5589 5591 5588 5583 5585 5589 5590 5590 5587 5582 5579 5579 5578 5580 5583 5584 5583 5579 5579 5576 5568 5565 5568 5566 5563 5565 5566 5565 5565 5565 5565 5565 5564 5563 5562 5560 5559 5557 5555 5553 5552
5591 5592 5592 5592 5592 5593 5593 5593 5592 5592 5594 5592 5590 5593 5595 5593 5595 5596 5593 5590 5591 5592 5592 5589 5589 5590 5590 5591 5590 5587 5588 5588 5587 5588 5589 5588 5588 5587 5587 5588 5589 5590 5590 5590 5589 5585 5581 5579 5580 5578 5572 5572 5578 5581 5579 5575 5569 5566 5567 5570 5574 5574 5573 5572 5569 5568 5565 5559 5557 5557 5553 5551 5554 5554 5553 5553 5551 5551 5551 5550 5551 5550 5549 5548 5547 5545 5544 5542
5583 5583 5584 5584 5584 5585 5585 5586 5585 5584 5585 5585 5583 5584 5584 5584 5585 5586 5584 5582 5580 5582 5583 5581 5579 5580 5579 5580 5581 5579 5579 5579 5578 5579 5579 5579 5579 5578 5577 5577 5578 5579 5579 5580 5579 5576 5573 5569 5569 5569 5559 5557 5569 5571 5564 5563 5559 5553 5556 5564 5568 5566 5562 5560 5559 5557 5554 5550 5548 5548 5544 5542 5543 5542 5541 5540 5539 5539 5538 5538 5539 5539 5537 5536 5535 5535 5534 5532
5574 5575 5576 5576 5575 5577 5578 5578 5577 5576 5577 5578 5576 5574 5575 5576 5576 5576 5574 5573 5572 5572 5573 5571 5570 5570 5569 5569 5570 5571 5570 5569 5569 5569 5569 5569 5570 5569 5568 5568 5568 5569 5570 5570 5567 5567 5567 5560 5558 5558 5547 5545 5559 5559 5551 5550 5544 5540 5552 5560 5558 5555 5552 5549 5549 5547 5545 5543 5541 5539 5536 5534 5532 5530 5529 5528 5526 5525 5525 5525 5527 5527 5526 5524 5523 5523 5523 5522